Location: Cedar Springs
(43.2230°N, 85.5510°W)
Time: 09:45:20
(UTC-04:00)

Cosmos 2278 Rocket - Visible Passes

Search period start: 24 May 2016 00:00
Search period end: 03 June 2016 00:00
Orbit: 840 x 847 km, 71.0° (Epoch: 22 May)

Date Brightness Start Highest point End Pass type
(mag) Time Alt. Az. Time Alt. Az. Time Alt. Az.
24 May 4.0 22:22:33 10° NW 22:27:13 27° WSW 22:31:52 10° SSW visible
25 May 4.0 22:07:58 10° NW 22:12:43 28° WSW 22:17:26 10° SSW visible
26 May 4.0 21:53:23 10° NW 21:58:12 29° WSW 22:03:00 10° SSW visible
27 May 4.0 21:38:48 10° NW 21:43:41 30° WSW 21:48:33 10° SSW visible
